"Pseudo-MPEC" for P10RpST

Created 2019 Sep 20 7:07:22 UT using Find_Orb

Click here for an explanation of pseudo-MPECs

 
 Astrometry: 
     P10RpST  C2019 09 06OeI]IP3HOvw1_Tht3hNObSY!nAstrometryZOSH5\39@6C-8r)i^F51
     P10RpST  C2019 09 06CC=VnE`0xsflSlvan1C[$=qHK0t.SXredacted;Qw^H--nGqlA]9F51
     P10RpST  C2019 09 06N*55x3ZY*+'UoUdIhora3fc_2*B%2nYI59(?x/Onmq,K342u_gY\F51
     P10RpST |C2019 09 08Flb;nAd]click4FVgU+[Mx,Z;Wm)CG^?aKRCKD_fl[*OIP,6_kK3807
     P10RpST |C2019 09 08DWG9hnB2;++]EW(_wtt\$CfdZU_9S=:l_.iqIIL/here`KfBford807
     P10RpST |C2019 09 08=^St\@^pFexplanationnU9GLSn2a7)0``6oF5h-^?`3!Zqq?LsA807
     P10RpST |C2019 09 20SL5egHR@bhj.^YPefi^'_aM0hm6;4ih#.U]1-#sPm\4MfSmUkt1P807
     P10RpST |C2019 09 20\9:$`Q?t@aQOq4:Xk3._owf\*Ykv.WjpAHVLA*l)5uI5X:#ASrr?807
     P10RpST |C2019 09 20.SRaW3+'.S7ZtALWV1YkjMne'g]O9-OFn`YyAg,XG[yMl/)$huHi807

Station data:
(807) Cerro Tololo Observatory, La Serena  (S30.169136 W70.805900)  Chile.
(F51) Pan-STARRS 1, Haleakala  (N20.707235 W156.255910)  US/Hawaii.
   Observers N. Primak, A. Schultz, S. Watters, J. Thiel, T. Goggia. Measurer
   PS1 Science Consortium. 1.8-m Ritchey-Chrétien + CCD.

Orbital elements:  P10RpST
   Perihelion 2019 Jul 18.177894 +/- 0.251 TT =  4:16:10 (JD 2458682.677894)
Epoch 2019 Sep 20.0 TT = JDT 2458746.5   Earth MOID: 0.5573   AutoNEOCP
M  14.48473491 +/- 0.07             (J2000 ecliptic)
n   0.22695482 +/- 0.00185          Peri.  152.00997 +/- 0.12
a   2.66180622 +/- 0.0145           Node   159.87241 +/- 0.0013
e   0.4167464 +/- 0.00251           Incl.   16.49031 +/- 0.07
P   4.34                   H 21.7   G  0.15   U  8.5  
q 1.55250801 +/- 0.0018    Q 3.77110443 +/- 0.0268
From 9 observations 2019 Sept. 6-20; mean residual 0".14
Residuals in arcseconds: 
190906 F51  .02+  .10-    190908 807  .03-  .01-    190920 807  .34+  .15-    
190906 F51  .08+  .17+    190908 807  .08-  .03+    190920 807  .08-  .03-    
190906 F51  .10-  .07-    190908 807  .11+  .02-    190920 807  .27-  .18+    

Ephemerides (geocentric):
Date (UTC) HH   RA              Dec         delta   r     elong  mag " sig PA
---- -- -- --  -------------   -----------  ------ ------ -----  --- ---- ---
2019 09 20 07  22 43 52.270   -15 00 13.81  .67429 1.6518 159.0 22.7 .085  67
2019 09 20 08  22 43 52.777   -15 01 03.00  .67455 1.6519 159.0 22.7 .098  66
2019 09 20 09  22 43 53.287   -15 01 52.13  .67480 1.6520 158.9 22.7 .111  65
2019 09 20 10  22 43 53.798   -15 02 41.19  .67506 1.6521 158.9 22.7 .124  65
2019 09 20 11  22 43 54.311   -15 03 30.19  .67532 1.6523 158.8 22.7 .137  64
2019 09 20 12  22 43 54.826   -15 04 19.12  .67557 1.6524 158.8 22.7 .150  64
2019 09 20 13  22 43 55.344   -15 05 07.99  .67583 1.6525 158.8 22.7 .163  63
2019 09 20 14  22 43 55.863   -15 05 56.79  .67609 1.6526 158.7 22.7 .176  63
2019 09 20 15  22 43 56.384   -15 06 45.53  .67635 1.6527 158.7 22.7 .190  63
2019 09 20 16  22 43 56.907   -15 07 34.20  .67661 1.6529 158.6 22.7 .204  63
2019 09 20 17  22 43 57.432   -15 08 22.81  .67687 1.6530 158.6 22.7 .217  62
2019 09 20 18  22 43 57.958   -15 09 11.36  .67713 1.6531 158.5 22.7 .231  62
2019 09 20 19  22 43 58.487   -15 09 59.84  .67739 1.6532 158.5 22.7 .245  62
2019 09 20 20  22 43 59.018   -15 10 48.25  .67765 1.6534 158.4 22.7 .259  62
2019 09 20 21  22 43 59.551   -15 11 36.60  .67791 1.6535 158.4 22.7 .273  62
2019 09 20 22  22 44 00.086   -15 12 24.88  .67817 1.6536 158.3 22.7 .287  62
2019 09 20 23  22 44 00.622   -15 13 13.10  .67843 1.6537 158.3 22.7 .302  61
2019 09 21 00  22 44 01.161   -15 14 01.25  .67870 1.6539 158.3 22.7 .316  61
2019 09 21 01  22 44 01.702   -15 14 49.34  .67896 1.6540 158.2 22.7 .331  61
2019 09 21 02  22 44 02.244   -15 15 37.37  .67922 1.6541 158.2 22.7 .345  61
2019 09 21 03  22 44 02.789   -15 16 25.32  .67948 1.6542 158.1 22.7 .360  61
2019 09 21 04  22 44 03.336   -15 17 13.22  .67975 1.6543 158.1 22.7 .375  61
2019 09 21 05  22 44 03.884   -15 18 01.04  .68001 1.6545 158.0 22.8 .390  61
2019 09 21 06  22 44 04.435   -15 18 48.81  .68027 1.6546 158.0 22.8 .405  61
2019 09 21 07  22 44 04.987   -15 19 36.50  .68054 1.6547 157.9 22.8 .420  61
2019 09 21 08  22 44 05.542   -15 20 24.13  .68080 1.6548 157.9 22.8 .436  61
2019 09 21 09  22 44 06.098   -15 21 11.70  .68107 1.6550 157.8 22.8 .451  60
2019 09 21 10  22 44 06.657   -15 21 59.20  .68133 1.6551 157.8 22.8 .467  60
2019 09 21 11  22 44 07.218   -15 22 46.64  .68160 1.6552 157.8 22.8 .482  60
2019 09 21 12  22 44 07.780   -15 23 34.01  .68186 1.6553 157.7 22.8 .498  60
2019 09 21 13  22 44 08.345   -15 24 21.31  .68213 1.6555 157.7 22.8 .514  60
2019 09 21 14  22 44 08.911   -15 25 08.55  .68240 1.6556 157.6 22.8 .530  60
2019 09 21 15  22 44 09.480   -15 25 55.72  .68266 1.6557 157.6 22.8 .546  60
2019 09 21 16  22 44 10.051   -15 26 42.83  .68293 1.6558 157.5 22.8 .562  60
2019 09 21 17  22 44 10.623   -15 27 29.87  .68320 1.6560 157.5 22.8 .578  60
2019 09 21 18  22 44 11.198   -15 28 16.85  .68347 1.6561 157.4 22.8 .595  60
2019 09 21 19  22 44 11.774   -15 29 03.76  .68373 1.6562 157.4 22.8 .611  60
2019 09 21 20  22 44 12.353   -15 29 50.61  .68400 1.6563 157.3 22.8 .628  60
2019 09 21 21  22 44 12.934   -15 30 37.39  .68427 1.6565 157.3 22.8 .645  60
2019 09 21 22  22 44 13.517   -15 31 24.10  .68454 1.6566 157.3 22.8 .661  60
2019 09 21 23  22 44 14.102   -15 32 10.75  .68481 1.6567 157.2 22.8 .678  60
2019 09 22 00  22 44 14.688   -15 32 57.33  .68508 1.6568 157.2 22.8 .695  59
2019 09 22 01  22 44 15.277   -15 33 43.85  .68535 1.6569 157.1 22.8 .712  59
2019 09 22 02  22 44 15.868   -15 34 30.30  .68562 1.6571 157.1 22.8 .730  59
2019 09 22 03  22 44 16.461   -15 35 16.68  .68589 1.6572 157.0 22.8 .747  59
2019 09 22 04  22 44 17.056   -15 36 03.00  .68616 1.6573 157.0 22.8 .765  59
2019 09 22 05  22 44 17.653   -15 36 49.25  .68643 1.6574 156.9 22.8 .782  59
2019 09 22 06  22 44 18.252   -15 37 35.44  .68670 1.6576 156.9 22.8 .800  59